Lid_Strength_Index
2 2 2 2 3 3 3 3 3 3 3 2 2 2 2 2 2 2 2 2 2 2 1 2 1 1 3 8 6 2 -3 -2 0 2 5 7 10 12 14 13 11 13 12 11 11 11 11
2 2 2 2 2 2 3 3 3 3 3 3 3 2 2 2 2 2 2 2 2 2 2 1 1 1 5 12 4 2 0 2 2 5 8 8 10 9 12 12 13 11 12 11 12 12 11
2 2 2 2 2 2 2 2 2 2 2 2 3 3 2 2 2 2 2 2 2 2 2 1 1 1 6 9 4 4 2 5 5 5 7 7 8 9 10 12 11 11 13 12 11 10 10
2 2 2 2 2 2 2 2 2 2 2 2 2 3 3 3 2 3 2 2 2 2 1 1 1 4 9 4 3 3 6 6 6 6 7 7 7 9 11 11 11 13 14 16 13 11 10
3 2 2 2 2 2 2 2 2 2 2 2 2 2 3 3 3 3 3 3 2 2 1 1 4 7 8 1 4 4 6 6 6 6 6 5 7 10 11 14 15 15 18 17 15 12 12
3 2 2 2 3 3 2 2 2 2 2 2 2 2 2 3 3 3 3 3 3 3 2 2 3 7 6 6 5 5 5 5 7 7 8 8 11 12 14 15 18 16 17 15 16 13 13
4 3 2 2 2 3 2 2 2 2 2 2 2 3 3 3 3 3 5 7 10 10 6 9 6 6 5 4 4 6 5 6 7 9 13 11 14 15 13 13 12 13 14 14 13 11 13
4 3 2 3 3 3 2 2 2 2 2 3 3 3 3 3 3 4 6 8 8 9 12 7 7 6 4 5 8 6 5 9 10 13 11 13 15 12 11 11 12 13 14 14 12 10 11
4 3 3 3 3 3 3 3 2 3 3 3 3 3 3 3 4 6 8 7 5 8 12 9 7 7 7 6 8 8 7 9 11 13 13 15 13 10 11 13 12 13 14 13 13 11 11
4 4 3 3 3 3 2 3 2 3 2 3 3 3 3 3 6 8 8 6 6 8 15 10 9 7 7 8 9 6 6 8 11 13 13 13 11 11 13 13 11 15 11 10 11 13 17
5 5 4 3 3 2 2 2 2 3 3 3 3 3 3 4 8 8 6 6 7 7 19 9 10 6 8 10 9 8 6 8 11 12 12 13 12 12 13 11 9 12 9 10 11 13 15
5 5 4 3 2 2 3 3 3 3 3 4 4 3 3 5 7 6 5 6 6 13 18 12 9 9 10 10 10 8 8 8 9 12 12 12 10 10 10 8 8 8 10 11 12 14 19
5 5 4 4 3 2 3 3 3 3 3 3 3 3 4 4 7 6 6 7 13 17 9 12 12 10 11 11 10 9 10 12 14 16 16 12 12 8 7 10 10 11 14 18 19 19 19
5 4 4 4 4 3 3 3 3 4 4 4 4 4 4 4 6 5 7 10 17 12 12 9 10 10 12 10 10 10 10 13 11 12 14 15 15 10 8 10 13 13 14 18 22 21 18
5 4 4 4 4 4 3 3 4 4 4 4 4 6 6 5 4 7 9 14 15 11 9 10 10 12 12 11 11 11 12 12 10 10 14 15 14 8 8 8 10 13 15 12 16 15 19
5 5 5 4 4 4 5 4 4 4 4 4 8 7 6 4 6 7 11 12 11 7 8 10 13 12 14 13 14 14 13 9 10 8 10 11 16 10 9 9 9 11 10 15 15 21 22
5 5 5 5 4 5 5 5 4 4 4 4 8 8 5 6 6 9 14 12 9 7 7 10 12 13 13 13 13 13 12 9 8 9 9 11 13 13 11 12 13 13 14 14 14 16 20
5 5 5 5 5 5 5 6 5 5 5 5 10 10 5 6 11 13 13 10 8 8 6 8 10 11 12 12 13 12 12 9 7 8 12 11 13 16 13 10 9 10 12 13 17 18 17
5 5 5 5 5 6 6 6 6 5 5 7 9 10 5 7 16 15 12 10 9 9 9 9 10 10 10 13 14 10 10 7 7 9 11 11 14 17 15 13 10 12 11 11 13 14 17
5 5 4 5 6 6 6 6 6 6 6 8 10 13 11 10 11 13 13 12 11 8 9 9 10 9 11 12 11 12 11 8 8 8 6 8 12 15 18 15 12 14 12 12 14 17 17
5 5 5 5 6 7 7 7 6 7 6 10 12 13 12 15 14 13 13 11 12 12 9 10 11 10 12 14 13 12 10 10 8 7 9 10 15 13 12 12 12 13 13 12 14 14 17
5 5 5 6 6 7 7 7 7 7 7 11 13 14 12 13 12 13 13 13 12 11 11 11 12 10 11 13 13 13 11 12 11 9 11 10 15 13 15 12 12 13 12 12 12 12 13
6 5 5 6 6 7 7 7 7 7 8 12 11 11 10 13 14 15 14 13 12 11 10 9 11 12 12 10 9 9 9 8 9 10 12 12 13 15 17 13 13 16 13 13 12 11 12
5 5 5 6 7 7 7 7 7 7 9 12 11 10 12 16 14 14 12 12 12 12 13 10 10 12 9 7 8 9 9 9 9 10 10 12 13 14 17 14 20 13 9 10 11 10 10
6 5 6 6 7 7 7 7 8 8 8 12 12 12 12 13 13 12 11 12 12 11 12 11 9 8 8 9 12 13 13 12 11 10 11 10 12 15 17 17 14 12 11 12 13 13 9
6 5 6 6 7 7 7 7 8 8 8 12 13 10 9 13 16 11 13 12 15 15 13 10 8 7 9 10 12 17 17 14 15 13 9 10 10 14 15 19 20 14 10 8 9 15 9
6 5 6 6 7 7 7 7 8 8 8 10 12 11 11 12 12 12 14 14 13 14 15 11 9 10 7 11 14 15 16 12 16 16 15 14 14 16 15 17 15 10 9 7 16 14 9
6 5 6 6 7 7 7 8 8 8 8 9 11 10 10 12 12 11 11 13 13 13 15 12 11 10 12 13 13 14 14 13 14 13 16 16 15 16 15 17 19 8 9 13 10 9 8
6 6 6 7 7 7 8 8 7 8 8 8 12 10 9 11 12 11 10 9 9 9 9 9 11 10 9 12 11 11 13 12 13 16 10 15 13 14 14 14 9 7 8 8 9 9 8